Preview of NWS' New Version of Forecast
This preview is not operational and should not be used for support decisions.

Regional Weather Roundup (RWR)

Issued by National Weather Service (NWS)

                            
000
ASUS43 KBIS 192110
RWRND 

NORTH DAKOTA REGIONAL WEATHER ROUNDUP
NATIONAL WEATHER SERVICE BISMARCK ND
400 PM CDT FRI APR 19 2019

NOTE: "FAIR" INDICATES FEW OR NO CLOUDS BELOW 12,000 FEET WITH NO
SIGNIFICANT WEATHER AND/OR OBSTRUCTIONS TO VISIBILITY.


NDZ001>003-009>011-017-192200-
NORTHWEST NORTH DAKOTA
  
CITY           SKY/WX    TMP DP  RH WIND       PRES   REMARKS
WILLISTON      PTSUNNY   80  40  23 W23G35    29.68F                  
MINOT          SUNNY     78  38  23 SW16G38   29.64F                  
MINOT AFB      SUNNY     77  37  23 NW16G26   29.63F                  
$$
 
NDZ018>021-031>035-040>046-192200-
SOUTHWEST NORTH DAKOTA
  
CITY           SKY/WX    TMP DP  RH WIND       PRES   REMARKS
BISMARCK       FAIR      75  40  28 SW16G22   29.73F                  
DICKINSON      FAIR      76  40  27 W20G33    29.74F                  
GARRISON         N/A     76  37  24 W17G30    29.67F                  
HETTINGER ARPT FAIR      76  39  26 W15G26    29.80F                  
$$
 
NDZ004>008-012>016-024-026-027-054-192200-
NORTHEAST NORTH DAKOTA
  
CITY           SKY/WX    TMP DP  RH WIND       PRES   REMARKS
GRAND FORKS    PTSUNNY   61  44  53 S22G33    29.80F                  
GRND FRKS AFB  PTSUNNY   63  43  48 SW13G21   29.82F                  
DEVILS LAKE    PTSUNNY   67  34  29 S22G28    29.73F                  
$$
 
NDZ022-023-025-028>030-036>039-047>053-192200-
SOUTHEAST NORTH DAKOTA
  
CITY           SKY/WX    TMP DP  RH WIND       PRES   REMARKS
FARGO          FAIR      62  42  47 S18G28    29.86F                  
JAMESTOWN      MOSUNNY   68  32  26 S22G31    29.78F                  
$$